Stations météo

réclame
Mon MeteoGroup
Niort, France (7330): Température de l'air & dewpoint: 12.10.2017 05:00:00 - 18.10.2017 05:00:00 (CEST)Niort, France (7330): Température de l'air 5cm: 12.10.2017 05:00:00 - 18.10.2017 05:00:00 (CEST)Niort, France (7330): Température de l'air -20cm & Température de l'air -100cm: 12.10.2017 05:00:00 - 18.10.2017 05:00:00 (CEST)Niort, France (7330): Vitesse du vent & gusts: 12.10.2017 05:00:00 - 18.10.2017 05:00:00 (CEST)Niort, France (7330): Direction du vent: 12.10.2017 05:00:00 - 18.10.2017 05:00:00 (CEST)Niort, France (7330): reduced air pressure: 12.10.2017 05:00:00 - 18.10.2017 05:00:00 (CEST)Niort, France (7330): visibility: 12.10.2017 05:00:00 - 18.10.2017 05:00:00 (CEST)Niort, France (7330): Ensoleillement: 12.10.2017 05:00:00 - 18.10.2017 05:00:00 (CEST)Niort, France (7330): Quantités de précipitations: 12.10.2017 05:00:00 - 18.10.2017 05:00:00 (CEST)
Date & Time tt [°C] td [°C] tt 5cm [°C] tt -20cm [°C] tt -100cm [°C] ff [km/h] ff [knt] fx [km/h] fx [knt] dd ppp [hPa] vv [km] sd [min] rr [mm]
18.10.2017 05:00:00 16,3 12,3 14,6 16,9 17,0 15 8 20 11 SE 1012,8 20 0 0,0
18.10.2017 04:00:00 16,5 12,3 14,7 16,8 16,9 13 7 27 14 SE 1013,3 20 0 0,0
18.10.2017 03:00:00 16,4 12,4 14,6 16,9 17,0 18 10 26 14 SE 1013,8 20 0 0,0
18.10.2017 02:00:00 16,7 12,8 14,7 16,9 17,0 13 7 20 11 SE 1014,3 20 0 0,0
18.10.2017 01:00:00 17,2 13,5 15,0 16,8 17,0 12 7 25 14 S 1014,8 14 0 0,4
18.10.2017 00:00:00 16,8 12,3 15,0 16,9 17,0 11 6 22 12 SE 1014,9 20 0 0,0
17.10.2017 23:00:00 17,3 12,6 12,3 16,8 17,0 14 8 19 10 SE 1014,7 20 0 0,0
17.10.2017 22:00:00 15,5 11,7 12,0 16,8 17,0 6 3 9 5 SE 1014,8 20 0 0,0
17.10.2017 21:00:00 16,4 12,0 12,3 16,8 17,0 6 3 9 5 ESE 1014,7 20 0 0,0
17.10.2017 20:00:00 18,6 12,3 13,7 16,8 17,0 5 3 16 8 SE 1014,8 20 0 0,0
17.10.2017 19:00:00 21,0 12,9 18,7 16,8 16,9 11 6 24 13 SSE 1014,5 20 7 0,0
17.10.2017 18:00:00 24,1 13,3 24,9 16,8 17,0 18 10 29 15 SSE 1014,4 20 60 0,0
17.10.2017 17:00:00 24,8 13,4 27,8 16,8 17,0 22 12 31 17 SE 1014,7 20 60 0,0
17.10.2017 16:00:00 24,9 13,8 28,1 16,9 17,0 18 10 31 17 SE 1015,2 20 60 0,0
17.10.2017 15:00:00 23,2 13,4 25,6 16,9 17,0 16 9 27 15 SE 1016,2 20 57 0,0
17.10.2017 14:00:00 22,4 13,5 24,6 16,9 17,0 20 11 29 15 SSE 1017,3 20 39 0,0
17.10.2017 13:00:00 21,7 13,3 23,9 16,8 16,9 20 11 29 16 SE 1018,2 20 58 0,0
17.10.2017 12:00:00 20,4 13,4 19,6 16,9 17,0 19 11 28 15 SSE 1019,0 20 60 0,0
17.10.2017 11:00:00 18,1 12,8 16,6 16,8 16,9 18 10 28 15 SE 1019,7 20 60 0,0
17.10.2017 10:00:00 16,1 12,5 13,7 16,8 16,9 13 7 23 13 SE 1020,3 20 34 0,0
17.10.2017 09:00:00 14,5 12,0 12,4 16,9 17,0 9 5 19 10 SE 1020,5 20 1 0,0
17.10.2017 08:00:00 13,9 11,9 12,5 16,8 17,0 9 5 17 9 ESE 1020,4 18 0 0,0
17.10.2017 07:00:00 14,6 12,5 12,8 16,8 16,9 10 5 20 11 E 1020,8 16 0 0,2
17.10.2017 06:00:00 14,7 12,9 12,6 16,8 17,0 16 8 21 11 E 1020,9 13 0 0,0
17.10.2017 05:00:00 14,0 11,7 12,2 16,8 17,0 13 7 25 13 ENE 1021,4 14 0 0,0
17.10.2017 04:00:00 13,6 10,9 12,4 16,8 16,9 11 6 16 9 ENE 1022,1 16 0 0,0
17.10.2017 03:00:00 13,8 12,0 11,8 16,8 17,0 8 4 11 6 NE 1022,6 10 0 0,0
17.10.2017 02:00:00 14,7 12,7 12,5 16,8 17,0 6 3 16 8 ENE 1022,9 11 0 0,0
17.10.2017 01:00:00 15,3 13,0 13,5 16,8 17,0 12 6 18 10 NE 1023,1 12 0 0,0
17.10.2017 00:00:00 15,3 13,5 14,0 16,8 17,0 7 4 12 7 N 1023,3 10 0 0,0
16.10.2017 23:00:00 16,0 14,2 14,6 16,7 16,9 8 4 16 9 NNW 1023,2 9 0 0,0
16.10.2017 22:00:00 16,8 15,1 12,0 16,8 17,0 9 5 12 7 WNW 1023,0 8 0 0,0
16.10.2017 21:00:00 18,1 15,7 12,4 16,8 17,0 3 2 8 5 NNW 1022,7 12 0 0,0
16.10.2017 20:00:00 19,1 15,8 16,7 16,8 17,0 6 4 17 9 NW 1022,6 14 0 0,0
16.10.2017 19:00:00 21,1 15,9 19,6 16,7 17,0 10 6 19 10 WNW 1022,1 17 6 0,0
16.10.2017 18:00:00 23,0 15,6 23,2 16,7 17,0 15 8 22 12 W 1021,7 20 38 0,0
16.10.2017 17:00:00 24,9 15,5 25,0 16,7 17,0 15 8 31 17 W 1021,2 20 50 0,0
16.10.2017 16:00:00 25,9 14,7 28,7 16,8 17,0 19 11 32 17 WSW 1021,1 20 60 0,0
16.10.2017 15:00:00 25,4 14,5 28,5 16,8 16,9 21 11 36 20 SW 1021,2 20 60 0,0
16.10.2017 14:00:00 25,2 14,6 27,7 16,8 17,0 21 11 37 20 SSW 1021,3 20 60 0,0
16.10.2017 13:00:00 24,2 14,6 25,5 16,8 17,0 21 11 32 18 S 1021,7 20 60 0,0
16.10.2017 12:00:00 22,3 14,7 21,6 16,8 17,0 18 10 34 19 S 1021,6 20 42 0,0
16.10.2017 11:00:00 20,4 14,5 19,2 16,8 17,0 21 12 32 18 SSE 1020,9 20 60 0,0
16.10.2017 10:00:00 18,5 14,2 15,6 16,7 17,0 18 10 31 17 SSE 1020,9 20 36 0,0
16.10.2017 09:00:00 16,3 13,4 14,8 16,7 17,0 18 10 29 15 SE 1020,3 20 1 0,0
16.10.2017 08:00:00 15,9 13,4 14,4 16,8 17,0 19 11 27 14 SSE 1020,1 20 0 0,0
16.10.2017 07:00:00 15,8 13,1 14,3 16,7 17,0 15 8 26 14 SE 1020,2 20 0 0,0
16.10.2017 06:00:00 16,1 13,2 14,6 16,7 17,0 16 9 31 17 SE 1020,2 20 0 0,0
16.10.2017 05:00:00 16,7 13,4 15,1 16,7 17,0 18 10 29 16 SE 1020,3 20 0 0,0
16.10.2017 04:00:00 16,9 13,6 15,3 16,7 17,0 17 9 27 14 SE 1020,7 20 0 0,0
16.10.2017 03:00:00 17,3 13,8 15,7 16,6 16,9 13 7 25 13 SE 1021,1 20 0 0,0
16.10.2017 02:00:00 18,1 14,2 16,5 16,7 17,0 18 10 26 14 SE 1021,3 20 0 0,0
16.10.2017 01:00:00 18,6 14,5 16,8 16,7 17,0 13 7 22 12 SE 1021,7 20 0 0,0
16.10.2017 00:00:00 19,3 14,3 17,4 16,7 17,0 13 7 19 11 SE 1021,6 20 0 0,0
15.10.2017 23:00:00 19,5 14,5 17,5 16,6 17,0 12 6 20 11 ESE 1021,7 20 0 0,0
15.10.2017 22:00:00 19,9 14,9 16,8 16,6 17,0 11 6 16 9 ESE 1021,5 20 0 0,0
15.10.2017 21:00:00 20,6 15,2 17,2 16,6 17,0 12 7 17 9 ESE 1021,5 20 0 0,0
15.10.2017 20:00:00 21,6 15,2 18,1 16,7 17,0 6 4 14 8 ESE 1021,6 20 0 0,0
15.10.2017 19:00:00 23,3 15,9 21,4 16,6 17,0 14 7 17 9 SE 1021,1 20 0 0,0
15.10.2017 18:00:00 24,1 16,4 21,4 16,7 17,0 8 4 30 16 SSE 1021,4 20 0 0,0
15.10.2017 17:00:00 24,6 15,5 23,8 16,7 17,0 19 11 28 15 SSE 1021,2 20 0 0,0
15.10.2017 16:00:00 24,2 15,4 24,3 16,7 17,0 17 9 29 16 SSE 1021,7 20 0 0,0
15.10.2017 15:00:00 24,9 15,0 24,9 16,7 17,0 16 9 31 17 S 1022,0 20 40 0,0
15.10.2017 14:00:00 23,8 15,0 25,0 16,7 17,0 19 10 32 18 SSE 1022,0 20 34 0,0
15.10.2017 13:00:00 23,2 15,3 24,8 16,7 17,0 19 10 31 17 SSE 1022,8 19 60 0,0
15.10.2017 12:00:00 21,2 15,1 20,1 16,7 17,0 20 11 31 17 SSE 1023,1 0,2 60 0,0
15.10.2017 11:00:00 18,7 14,4 17,2 16,7 17,0 21 11 30 16 SSE 1023,1 0,3 60 0,0
15.10.2017 10:00:00 16,5 13,4 13,9 16,7 17,0 16 8 24 13 SE 1023,0 4,8 34 0,0
15.10.2017 09:00:00 14,5 12,5 12,6 16,8 17,0 14 8 22 12 SE 1022,7 0,2 3 0,0
15.10.2017 08:00:00 13,9 12,3 12,3 16,7 17,0 11 6 22 12 SE 1022,4 0,1 0 0,0
15.10.2017 07:00:00 14,2 12,2 12,9 16,7 17,0 12 6 21 12 SE 1022,4 0,2 0 0,0
15.10.2017 06:00:00 14,4 12,3 12,6 16,7 17,0 11 6 21 11 SE 1022,4 0,2 0 0,0
15.10.2017 05:00:00 14,3 12,0 10,9 16,7 17,0 10 5 16 8 SE 1022,5 0,5 0 0,0
15.10.2017 04:00:00 14,9 11,7 12,8 16,7 17,0 10 6 24 13 SSE 1022,8 0,4 0 0,0
15.10.2017 03:00:00 16,3 12,3 12,5 16,6 17,0 15 8 22 12 ESE 1022,6 9 0 0,0
15.10.2017 02:00:00 15,1 11,5 7,8 16,7 17,0 10 5 16 9 ESE 1022,8 15 0 0,0
15.10.2017 01:00:00 13,1 11,2 7,8 16,6 17,0 6 3 8 4 E 1023,2 6 0 0,0
15.10.2017 00:00:00 14,2 11,4 8,4 16,6 17,0 4 2 13 7 ESE 1023,1 3,8 0 0,0
14.10.2017 23:00:00 16,4 12,0 12,9 16,6 17,0 11 6 15 8 E 1022,9 17 0 0,0
14.10.2017 22:00:00 16,8 12,1 13,6 16,6 17,0 13 7 15 8 E 1023,1 18 0 0,0
14.10.2017 21:00:00 17,7 11,7 13,6 16,6 17,0 10 6 13 7 E 1023,2 20 0 0,0
14.10.2017 20:00:00 19,5 12,3 15,1 16,6 17,0 10 5 12 7 E 1023,0 20 0 0,0
14.10.2017 19:00:00 23,1 12,4 20,2 16,6 17,0 8 4 13 7 E 1022,7 20 54 0,0
14.10.2017 18:00:00 25,8 12,6 26,4 16,6 17,0 10 5 17 9 ESE 1022,8 19 60 0,0
14.10.2017 17:00:00 26,7 12,0 30,2 16,6 17,0 9 5 19 10 SE 1023,0 20 60 0,0
14.10.2017 16:00:00 26,4 12,5 31,0 16,7 17,0 11 6 23 12 SE 1023,3 20 60 0,0
14.10.2017 15:00:00 25,8 12,6 30,4 16,6 17,0 12 7 24 13 SE 1023,8 20 60 0,0
14.10.2017 14:00:00 24,8 13,4 29,5 16,7 17,0 10 5 18 10 SE 1024,4 18 60 0,0
14.10.2017 13:00:00 23,2 13,4 25,5 16,7 17,0 10 5 20 11 SE 1025,1 19 60 0,0
14.10.2017 12:00:00 21,3 12,7 20,7 16,7 17,0 12 7 19 10 ESE 1025,7 20 60 0,0
14.10.2017 11:00:00 18,8 13,0 15,7 16,7 17,0 10 5 14 8 E 1025,7 20 60 0,0
14.10.2017 10:00:00 14,5 12,2 10,1 16,7 17,0 4 2 8 4 E 1025,6 18 35 0,0
14.10.2017 09:00:00 11,1 9,7 7,7 16,7 17,0 4 2 10 6 E 1025,3 7 4 0,0
14.10.2017 08:00:00 11,9 10,6 10,5 16,7 17,0 8 4 18 10 ENE 1025,0 12 0 0,0
14.10.2017 07:00:00 12,2 10,9 10,5 16,7 17,0 8 5 13 7 NE 1025,0 13 0 0,0
14.10.2017 06:00:00 12,1 10,8 8,5 16,6 17,0 7 4 14 7 NE 1025,0 16 0 0,0
14.10.2017 05:00:00 11,5 10,2 7,2 16,6 17,0 6 3 9 5 NE 1025,1 18 0 0,0
14.10.2017 04:00:00 11,9 10,1 8,7 16,6 17,0 6 4 15 8 NE 1025,3 20 0 0,0
14.10.2017 03:00:00 12,7 10,4 9,8 16,6 17,0 6 4 12 7 NE 1025,8 20 0 0,0
14.10.2017 02:00:00 13,7 10,7 10,5 16,6 17,0 5 3 11 6 NE 1025,8 20 0 0,0
14.10.2017 01:00:00 15,3 11,1 14,0 16,6 17,0 9 5 14 8 NE 1025,5 20 0 0,0
14.10.2017 00:00:00 16,3 11,4 14,9 16,6 17,0 11 6 16 9 NE 1025,4 20 0 0,0
13.10.2017 23:00:00 16,0 11,4 14,3 16,6 17,0 9 5 14 8 NE 1025,4 0,2 0 0,0
13.10.2017 22:00:00 15,8 11,4 11,7 16,6 17,0 8 4 13 7 NNE 1025,3 0,6 0 0,0
13.10.2017 21:00:00 16,7 11,2 12,0 16,6 17,0 6 3 10 6 NE 1025,2 0,1 0 0,0
13.10.2017 20:00:00 18,8 11,4 14,9 16,6 17,0 6 3 9 5 NE 1025,0 4,5 0 0,0
13.10.2017 19:00:00 20,4 11,3 17,8 16,6 17,1 8 4 13 7 ENE 1024,6 0,1 4 0,0
13.10.2017 18:00:00 23,2 11,6 24,2 16,6 17,0 8 4 16 9 ENE 1024,5 0,1 51 0,0
13.10.2017 17:00:00 24,2 11,2 26,2 16,6 17,1 10 5 16 9 E 1024,6 0,1 50 0,0
13.10.2017 16:00:00 24,3 11,9 29,3 16,7 17,1 5 3 16 9 E 1024,8 20 60 0,0
13.10.2017 15:00:00 23,6 12,3 28,7 16,7 17,0 6 4 15 8 E 1025,1 1,8 60 0,0
13.10.2017 14:00:00 22,3 13,1 27,6 16,7 17,0 8 5 16 9 E 1025,5 18 60 0,0
13.10.2017 13:00:00 20,9 13,1 20,8 16,7 17,0 8 4 18 10 E 1026,1 20 54 0,0
13.10.2017 12:00:00 19,7 13,6 18,6 16,7 17,0 10 6 16 9 NE 1026,2 20 60 0,0
13.10.2017 11:00:00 16,4 13,5 13,2 16,7 17,1 10 5 17 9 ENE 1026,3 20 35 0,0
13.10.2017 10:00:00 12,7 11,6 11,2 16,7 17,1 9 5 16 9 ENE 1026,2 19 13 0,0
13.10.2017 09:00:00 11,1 10,3 6,9 16,7 17,0 9 5 13 7 NE 1025,8 16 21 0,0
13.10.2017 08:00:00 9,9 9,0 6,4 16,7 17,1 6 3 8 4 ENE 1025,6 12 0 0,0
13.10.2017 07:00:00 10,6 9,5 8,0 16,7 17,0 6 4 14 8 NE 1025,9 17 0 0,0
13.10.2017 06:00:00 10,3 9,2 7,2 16,7 17,1 4 2 10 5 ENE 1025,9 18 0 0,0
13.10.2017 05:00:00 10,9 10,0 9,2 16,7 17,1 8 4 12 7 NE 1025,8 18 0 0,0
13.10.2017 04:00:00 10,8 9,7 8,8 16,7 17,1 6 3 13 7 NE 1026,0 12 0 0,0
13.10.2017 03:00:00 11,7 10,9 6,4 16,7 17,1 9 5 13 7 NE 1026,2 12 0 0,0
13.10.2017 02:00:00 11,3 10,4 6,2 16,7 17,1 5 3 7 4 NNE 1026,4 11 0 0,0
13.10.2017 01:00:00 12,0 11,1 6,6 16,7 17,1 5 3 7 4 NE 1026,3 15 0 0,0
13.10.2017 00:00:00 11,8 10,5 7,3 16,7 17,1 5 3 9 5 ENE 1026,4 17 0 0,0
12.10.2017 23:00:00 12,5 11,1 7,9 16,7 17,1 4 2 8 4 ENE 1026,6 20 0 0,0
12.10.2017 22:00:00 13,6 11,6 9,0 16,6 17,1 6 4 10 6 E 1026,4 20 0 0,0
12.10.2017 21:00:00 15,7 11,9 9,9 16,6 17,1 7 4 13 7 ESE 1026,2 20 0 0,0
12.10.2017 20:00:00 16,0 11,8 11,2 16,6 17,1 5 3 9 5 E 1026,4 20 0 0,0
12.10.2017 19:00:00 19,1 12,8 15,5 16,6 17,1 2 1 11 6 S 1025,9 20 22 0,0
12.10.2017 18:00:00 20,9 13,3 21,8 16,6 17,1 6 3 14 8 SE 1025,8 20 20 0,0
12.10.2017 17:00:00 20,5 13,7 22,5 16,6 17,1 5 3 12 7 ESE 1026,1 20 14 0,0
12.10.2017 16:00:00 20,6 14,0 22,2 16,6 17,1 5 3 13 7 S 1026,3 20 0 0,0
12.10.2017 15:00:00 19,8 14,2 22,0 16,6 17,1 7 4 18 10 S 1026,6 20 10 0,0
12.10.2017 14:00:00 19,1 14,6 21,8 16,6 17,1 10 5 18 10 SSW 1027,0 20 0 0,0
12.10.2017 13:00:00 18,0 14,9 18,9 16,7 17,1 10 5 20 11 S 1027,5 20 0 0,0
12.10.2017 12:00:00 17,0 14,8 17,4 16,7 17,1 13 7 22 12 S 1027,2 20 0 0,0
12.10.2017 11:00:00 15,9 14,8 15,5 16,6 17,1 13 7 18 10 S 1026,8 19 0 0,0
12.10.2017 10:00:00 14,7 14,1 13,7 16,7 17,1 9 5 19 10 S 1026,7 13 0 0,0
12.10.2017 09:00:00 13,6 13,0 12,3 16,7 17,1 12 6 16 9 SSE 1026,0 2,7 0 0,0
12.10.2017 08:00:00 12,7 11,8 10,0 16,7 17,1 6 3 9 5 SE 1025,4 2,1 0 0,0
12.10.2017 07:00:00 13,6 12,8 12,2 16,7 17,1 7 4 14 8 S 1024,5 6 0 0,0
12.10.2017 06:00:00 14,2 13,4 13,4 16,7 17,1 10 5 16 8 SSW 1024,0 9 0 0,0
12.10.2017 05:00:00 14,1 13,3 13,2 16,6 17,1 9 5 14 8 S 1023,9 9 0 0,0

tt = Température de l'air
td = dewpoint
tt 5cm = Température de l'air 5cm
tt -20cm = Température de l'air -20cm
tt -100cm = Température de l'air -100cm
ff = Vitesse du vent
fx = gusts
dd = Direction du vent
ppp = reduced air pressure
vv = visibility
sd = Ensoleillement
rr = Quantités de précipitations

stations d'obs. à proximité